CZ-6A DEB

Satellite information

Favourite Embed

Satellite Type and Status

DEBRISIN ORBIT

Key statistics

Satellite CZ-6A DEB at a glance.

Uptime

1082

Days in orbit

Revolutions

≈ 14.4

Per day

Orbit

SSO

Sun Synchronous Orbit

Inclination

98.6

Latest

Satellite identification and parameters

Extended collection of information and parameters for CZ-6A DEB.

Object identification

Identified? True

Debris? True

Object name: CZ-6A DEB

International designator: 2022-151JT

Object number (NORAD): 54515

Object ID (CCSDS): 54515

Country: PEOPLES REPUBLIC OF CHINA (PRC)

Current information (Y/N): Y

RCS size: SMALL

Orbital parameters

Period: 100.161 minutes

Inclination: 98.5818 deg

SMA: 7144.297 km

Apoapsis: 850.451 km

Periapsis: 681.872 km

RAAN: 320.4678 deg

Eccentricy: 0.0117981

Argument of periapsis: 335.1336 deg

Mean anomaly: 24.4193 deg

Mean motion: 14.37684364 rev/day

Mean motion (dot): 0.00000769 rev/day2

B* drag term: 0.00025083 1/REarth

Two-line elements (TLE)

Creation date: Oct. 27, 2025, 2:46 p.m.

Reference frame: TEME

Reference center: EARTH

Epoch: Oct. 27, 2025, 7:05 a.m. UTC

TLE line 0: 0 CZ-6A DEB

TLE line 1: 1 54515U 22151JT 25300.29527934 .00000769 00000-0 25083-3 0 9995

TLE line 2: 2 54515 98.5818 320.4678 0117981 335.1336 24.4193 14.37684364154854

Live tracking on map

Real-time ground track for satellite CZ-6A DEB.

In-orbit conjunctions

A list of the most updated potential collisions computed for object CZ-6A DEB.

Target Orbit TCA Probability of collision Miss distance Type
SSU 1 LEO 2025-04-19 11:00:36 0.000714339 443.0 (m) PAYLOAD

Associated space launch

Chinese satellite reported for atmospheric/ocean/environmental/spatial parameter research purposes, details TBD.

CZ-6A DEB was lifted into orbit during the mission ‘Long March 6A | Yunhai 3’, on board a Long March 6A space rocket.

The launch took place on Nov. 11, 2022, 10:52 p.m. from Launch Complex 9A.

For more information about the launch, click the button.

Launch to space Long March 6A | Yunhai 3
Long March 6A | Yunhai 3

Agency: N/A

Status: Launch Successful

Launch date: Nov. 11, 2022, 10:52 p.m. UTC

Rocket: Long March 6A

Launch pad: Launch Complex 9A

Location: Taiyuan Satellite Launch Center, People's Republic of China

...

Latest news about this satellite

There are no fresh news available about this satellite. Check back as we update our databases every day.


Newsletter sign-up

Weekly statistics, charts and insights to help you stay on top of the space industry.